Find Starlink 36473

NORAD ID: 67325 Int'l Des: 2026-002 Owner: SPXS Country: US Constellation: starlink operational
LEOCIRCULAR

現在のビュー

3D地球を読み込み中...

About Starlink 36473

Starlink 36473 (NORAD 67325) is a starlink constellation satellite (v2 mini) launched Jan 4, 2026 by SPXS of US. It operates in LEO, CIRCULAR orbit with a mass of 575.00 kg.

Starlink 36473について

説明を読み込み中...

次回通過

Passes for default location (London). Set your location on the main map for personalized predictions.

高度履歴

Loading altitude history...

軌道要素

1 67325U 26002W 26195.43026079 .00008650 00000-0 32344-3 0 9995
2 67325 43.0000 329.3774 0001784 273.4855 86.5792 15.27584792 30629
Epoch: Jul 14, 2026 • Age: 13 hours

現在のステータス

高度 482.5 km
遠地点 / 近地点 N/A
速度 7.63 km/s
衛星直下点 11.03°N, 152.49°W
打ち上げ日 Jan 4, 2026
運用期間 0.5 years
タイプ internet

技術仕様

分類 Payload
質量 575.00 kg
乾燥質量 530.00 kg
総質量 575.00 kg
長さ 0.30 m
直径 4.10 m
スパン 29.00 m
形状 Box + pan
製造者 SPXS
バスタイプ Starlink V2MO
フェーズステータス In Orbit
所有者/国 SPXS/US

Most Searched